Time,TemperatureF,DewpointF,PressureIn,WindDirection,WindDirectionDegrees,WindSpeedMPH,WindSpeedGustMPH,Humidity,HourlyPrecipIn,Conditions,Clouds,dailyrainin,SoftwareType,DateUTC
2013-04-11 00:00:00,44.6,43.5,29.84,NW,315,1.6,1.6,96,0.00,,,-99.99,meteobridge,2013-04-11 04:00:00,
2013-04-11 00:01:00,44.6,43.5,29.84,NW,315,1.6,1.6,96,0.00,,,0.00,meteobridge,2013-04-11 04:01:00,
2013-04-11 00:06:00,44.6,43.5,29.83,NW,315,1.6,1.6,96,0.00,,,0.00,meteobridge,2013-04-11 04:06:00,
2013-04-11 00:11:00,44.4,43.7,29.83,North,0,1.6,2.2,97,0.00,,,0.00,meteobridge,2013-04-11 04:11:00,
2013-04-11 00:17:00,44.4,43.7,29.83,NE,45,1.6,2.2,97,0.00,,,0.00,meteobridge,2013-04-11 04:17:00,
2013-04-11 00:22:00,44.4,43.7,29.83,West,270,1.6,1.6,97,0.00,,,0.00,meteobridge,2013-04-11 04:22:00,
2013-04-11 00:27:00,44.2,43.5,29.84,North,0,1.6,1.6,97,0.00,,,0.00,meteobridge,2013-04-11 04:27:00,
2013-04-11 00:32:00,44.4,43.7,29.85,NE,45,1.6,1.6,97,0.00,,,0.00,meteobridge,2013-04-11 04:32:00,
2013-04-11 00:37:00,44.4,43.7,29.84,North,0,0.0,0.0,97,0.00,,,0.00,meteobridge,2013-04-11 04:37:00,
2013-04-11 00:42:00,44.2,43.7,29.84,North,0,0.0,0.0,98,0.00,,,0.00,meteobridge,2013-04-11 04:42:00,
2013-04-11 00:48:00,44.2,43.7,29.83,West,270,0.0,0.0,98,0.00,,,0.00,meteobridge,2013-04-11 04:48:00,
2013-04-11 00:53:00,44.2,43.7,29.84,NE,45,0.0,0.0,98,0.00,,,0.00,meteobridge,2013-04-11 04:53:00,
2013-04-11 00:58:00,44.4,43.9,29.84,North,0,2.2,3.1,98,0.00,,,0.00,meteobridge,2013-04-11 04:58:00,
2013-04-11 01:03:00,44.2,43.7,29.82,North,0,0.0,0.0,98,0.01,,,0.01,meteobridge,2013-04-11 05:03:00,
2013-04-11 01:08:00,44.2,43.7,29.82,North,0,0.7,1.6,98,0.01,,,0.01,meteobridge,2013-04-11 05:08:00,
2013-04-11 01:13:00,44.2,43.7,29.82,West,270,1.6,1.6,98,0.01,,,0.01,meteobridge,2013-04-11 05:13:00,
2013-04-11 01:19:00,44.2,43.7,29.80,NW,315,1.6,2.2,98,0.02,,,0.02,meteobridge,2013-04-11 05:19:00,
2013-04-11 01:24:00,44.2,43.7,29.80,West,270,0.7,1.6,98,0.02,,,0.02,meteobridge,2013-04-11 05:24:00,
2013-04-11 01:29:00,44.2,43.7,29.80,North,0,0.7,1.6,98,0.02,,,0.02,meteobridge,2013-04-11 05:29:00,
2013-04-11 01:34:00,44.2,43.7,29.81,SW,225,0.0,0.0,98,0.02,,,0.02,meteobridge,2013-04-11 05:34:00,
2013-04-11 01:39:00,44.2,43.7,29.80,North,0,2.2,2.2,98,0.02,,,0.02,meteobridge,2013-04-11 05:39:00,
2013-04-11 01:44:00,44.2,43.7,29.80,NW,315,1.6,1.6,98,0.02,,,0.02,meteobridge,2013-04-11 05:44:00,
2013-04-11 01:50:00,44.2,43.7,29.80,NW,315,1.6,2.2,98,0.02,,,0.02,meteobridge,2013-04-11 05:50:00,
2013-04-11 01:55:00,44.2,43.7,29.81,North,0,1.6,1.6,98,0.02,,,0.02,meteobridge,2013-04-11 05:55:00,
2013-04-11 02:00:00,44.2,43.7,29.81,ENE,68,0.0,0.7,98,0.02,,,0.02,meteobridge,2013-04-11 06:00:00,
2013-04-11 02:05:00,44.2,43.7,29.80,ENE,68,0.0,0.0,98,0.01,,,0.02,meteobridge,2013-04-11 06:05:00,
2013-04-11 02:10:00,44.2,43.7,29.79,NE,45,0.0,0.0,98,0.01,,,0.02,meteobridge,2013-04-11 06:10:00,
2013-04-11 02:15:00,44.2,43.7,29.79,West,270,1.6,1.6,98,0.00,,,0.02,meteobridge,2013-04-11 06:15:00,
2013-04-11 02:21:00,44.2,43.7,29.78,North,0,3.1,3.1,98,0.00,,,0.02,meteobridge,2013-04-11 06:21:00,
2013-04-11 02:26:00,44.1,43.5,29.78,NW,315,3.1,3.1,98,0.00,,,0.02,meteobridge,2013-04-11 06:26:00,
2013-04-11 02:31:00,44.1,43.5,29.78,NE,45,0.7,3.1,98,0.00,,,0.02,meteobridge,2013-04-11 06:31:00,
2013-04-11 02:36:00,44.1,43.5,29.78,NW,315,0.0,0.7,98,0.00,,,0.02,meteobridge,2013-04-11 06:36:00,
2013-04-11 02:41:00,44.1,43.5,29.77,NW,315,0.7,3.8,98,0.00,,,0.02,meteobridge,2013-04-11 06:41:00,
2013-04-11 02:46:00,44.1,43.5,29.77,NW,315,3.1,3.1,98,0.00,,,0.02,meteobridge,2013-04-11 06:46:00,
2013-04-11 02:51:00,44.1,43.5,29.76,West,270,1.6,1.6,98,0.00,,,0.02,meteobridge,2013-04-11 06:51:00,
2013-04-11 02:56:00,44.1,43.5,29.76,West,270,1.6,2.2,98,0.00,,,0.02,meteobridge,2013-04-11 06:56:00,
2013-04-11 03:02:00,44.1,43.5,29.75,NW,315,0.0,2.2,98,0.00,,,0.02,meteobridge,2013-04-11 07:02:00,
2013-04-11 03:07:00,44.1,43.5,29.75,NW,315,1.6,2.2,98,0.00,,,0.02,meteobridge,2013-04-11 07:07:00,
2013-04-11 03:12:00,44.1,43.5,29.75,North,0,1.6,1.6,98,0.00,,,0.02,meteobridge,2013-04-11 07:12:00,
2013-04-11 03:17:00,44.1,43.5,29.75,NE,45,1.6,2.2,98,0.00,,,0.02,meteobridge,2013-04-11 07:17:00,
2013-04-11 03:22:00,44.1,43.5,29.76,NW,315,2.2,3.1,98,0.00,,,0.02,meteobridge,2013-04-11 07:22:00,
2013-04-11 03:27:00,44.1,43.5,29.75,NW,315,0.7,1.6,98,0.00,,,0.02,meteobridge,2013-04-11 07:27:00,
2013-04-11 03:33:00,44.1,43.5,29.76,NW,315,0.0,0.7,98,0.00,,,0.02,meteobridge,2013-04-11 07:33:00,
2013-04-11 03:38:00,44.1,43.5,29.77,East,90,1.6,1.6,98,0.00,,,0.02,meteobridge,2013-04-11 07:38:00,
2013-04-11 03:43:00,44.1,43.5,29.77,NW,315,1.6,1.6,98,0.00,,,0.02,meteobridge,2013-04-11 07:43:00,
2013-04-11 03:48:00,44.1,43.5,29.77,NW,315,0.7,1.6,98,0.00,,,0.02,meteobridge,2013-04-11 07:48:00,
2013-04-11 03:53:00,44.1,43.5,29.76,NW,315,0.7,0.7,98,0.00,,,0.02,meteobridge,2013-04-11 07:53:00,
2013-04-11 03:58:00,44.2,43.7,29.77,SW,225,0.0,0.7,98,0.00,,,0.02,meteobridge,2013-04-11 07:58:00,
2013-04-11 04:03:00,44.1,43.5,29.77,SW,225,0.0,0.0,98,0.00,,,0.02,meteobridge,2013-04-11 08:03:00,
2013-04-11 04:08:00,44.2,43.7,29.76,North,0,1.6,1.6,98,0.00,,,0.02,meteobridge,2013-04-11 08:08:00,
2013-04-11 04:14:00,44.2,43.7,29.77,NW,315,0.0,0.7,98,0.00,,,0.02,meteobridge,2013-04-11 08:14:00,
2013-04-11 04:19:00,44.2,43.7,29.77,NW,315,1.6,1.6,98,0.00,,,0.02,meteobridge,2013-04-11 08:19:00,
2013-04-11 04:24:00,44.1,43.5,29.77,West,270,1.6,1.6,98,0.00,,,0.02,meteobridge,2013-04-11 08:24:00,
2013-04-11 04:29:00,44.1,43.5,29.78,NE,45,0.0,0.7,98,0.00,,,0.02,meteobridge,2013-04-11 08:29:00,
2013-04-11 04:34:00,44.1,43.5,29.77,West,270,0.0,0.0,98,0.00,,,0.02,meteobridge,2013-04-11 08:34:00,
2013-04-11 04:39:00,44.1,43.5,29.77,NW,315,1.6,1.6,98,0.00,,,0.02,meteobridge,2013-04-11 08:39:00,
2013-04-11 04:45:00,44.1,43.5,29.77,North,0,1.6,1.6,98,0.00,,,0.02,meteobridge,2013-04-11 08:45:00,
2013-04-11 04:50:00,44.1,43.5,29.76,West,270,0.7,1.6,98,0.00,,,0.02,meteobridge,2013-04-11 08:50:00,
2013-04-11 04:55:00,44.1,43.5,29.76,SW,225,0.0,1.6,98,0.00,,,0.02,meteobridge,2013-04-11 08:55:00,
2013-04-11 05:00:00,44.1,43.5,29.76,South,180,0.0,0.0,98,0.00,,,0.02,meteobridge,2013-04-11 09:00:00,
2013-04-11 05:05:00,44.1,43.5,29.76,SW,225,0.7,2.2,98,0.00,,,0.02,meteobridge,2013-04-11 09:05:00,
2013-04-11 05:10:00,44.1,43.5,29.76,SW,225,2.2,2.2,98,0.00,,,0.02,meteobridge,2013-04-11 09:10:00,
2013-04-11 05:16:00,44.1,43.5,29.76,SW,225,1.6,2.2,98,0.00,,,0.02,meteobridge,2013-04-11 09:16:00,
2013-04-11 05:21:00,44.1,43.5,29.76,West,270,1.6,3.1,98,0.00,,,0.02,meteobridge,2013-04-11 09:21:00,
2013-04-11 05:26:00,44.1,43.5,29.76,West,270,1.6,2.2,98,0.00,,,0.02,meteobridge,2013-04-11 09:26:00,
2013-04-11 05:31:00,44.1,43.5,29.76,West,270,0.7,3.1,98,0.00,,,0.02,meteobridge,2013-04-11 09:31:00,
2013-04-11 05:36:00,44.1,43.5,29.76,SW,225,2.2,2.2,98,0.00,,,0.02,meteobridge,2013-04-11 09:36:00,
2013-04-11 05:41:00,44.1,43.5,29.77,West,270,3.1,3.1,98,0.00,,,0.02,meteobridge,2013-04-11 09:41:00,
2013-04-11 05:47:00,44.1,43.5,29.76,West,270,3.1,3.1,98,0.00,,,0.02,meteobridge,2013-04-11 09:47:00,
2013-04-11 05:52:00,43.9,43.3,29.76,SW,225,2.2,2.2,98,0.00,,,0.02,meteobridge,2013-04-11 09:52:00,
2013-04-11 05:57:00,43.9,43.3,29.77,West,270,0.7,1.6,98,0.00,,,0.02,meteobridge,2013-04-11 09:57:00,
2013-04-11 06:02:00,43.9,43.3,29.77,SW,225,2.2,2.2,98,0.00,,,0.02,meteobridge,2013-04-11 10:02:00,
2013-04-11 06:07:00,43.9,43.3,29.77,SW,225,2.2,2.2,98,0.00,,,0.02,meteobridge,2013-04-11 10:07:00,
2013-04-11 06:12:00,44.1,43.5,29.78,West,270,2.2,3.1,98,0.00,,,0.02,meteobridge,2013-04-11 10:12:00,
2013-04-11 06:18:00,44.1,43.5,29.79,South,180,2.2,2.2,98,0.00,,,0.02,meteobridge,2013-04-11 10:18:00,
2013-04-11 06:23:00,44.1,43.5,29.79,SW,225,2.2,2.2,98,0.00,,,0.02,meteobridge,2013-04-11 10:23:00,
2013-04-11 06:28:00,44.1,43.5,29.79,SW,225,2.2,2.2,98,0.00,,,0.02,meteobridge,2013-04-11 10:28:00,
2013-04-11 06:33:00,44.1,43.5,29.80,South,180,0.0,1.6,98,0.00,,,0.02,meteobridge,2013-04-11 10:33:00,
2013-04-11 06:38:00,44.2,43.7,29.81,SW,225,2.2,2.2,98,0.00,,,0.02,meteobridge,2013-04-11 10:38:00,
2013-04-11 06:43:00,44.2,43.7,29.82,SE,135,3.1,3.1,98,0.00,,,0.02,meteobridge,2013-04-11 10:43:00,
2013-04-11 06:49:00,44.4,43.9,29.82,South,180,1.6,2.2,98,0.00,,,0.02,meteobridge,2013-04-11 10:49:00,
2013-04-11 06:54:00,44.6,43.9,29.82,SW,225,0.7,3.8,97,0.00,,,0.02,meteobridge,2013-04-11 10:54:00,
2013-04-11 06:59:00,44.6,43.9,29.82,SW,225,2.2,2.2,97,0.00,,,0.02,meteobridge,2013-04-11 10:59:00,
2013-04-11 07:04:00,44.6,43.9,29.83,SSW,203,3.8,3.8,97,0.00,,,0.02,meteobridge,2013-04-11 11:04:00,
2013-04-11 07:09:00,44.6,43.9,29.83,SW,225,3.8,4.5,97,0.00,,,0.02,meteobridge,2013-04-11 11:09:00,
2013-04-11 07:14:00,44.6,43.9,29.84,South,180,3.1,3.8,97,0.00,,,0.02,meteobridge,2013-04-11 11:14:00,
2013-04-11 07:20:00,44.6,43.9,29.85,SW,225,2.2,2.2,97,0.00,,,0.02,meteobridge,2013-04-11 11:20:00,
2013-04-11 07:25:00,44.6,43.9,29.86,South,180,3.8,4.5,97,0.00,,,0.02,meteobridge,2013-04-11 11:25:00,
2013-04-11 07:30:00,44.6,43.9,29.86,SW,225,3.8,3.8,97,0.00,,,0.02,meteobridge,2013-04-11 11:30:00,
2013-04-11 07:35:00,44.6,43.9,29.85,SW,225,3.1,4.5,97,0.00,,,0.02,meteobridge,2013-04-11 11:35:00,
2013-04-11 07:40:00,44.8,44.1,29.86,SW,225,1.6,2.2,97,0.00,,,0.02,meteobridge,2013-04-11 11:40:00,
2013-04-11 07:45:00,44.8,44.1,29.86,South,180,2.2,2.2,97,0.00,,,0.02,meteobridge,2013-04-11 11:45:00,
2013-04-11 07:50:00,44.8,44.1,29.86,SW,225,2.2,2.2,97,0.00,,,0.02,meteobridge,2013-04-11 11:50:00,
2013-04-11 07:56:00,44.8,44.1,29.86,South,180,2.2,5.4,97,0.00,,,0.02,meteobridge,2013-04-11 11:56:00,
2013-04-11 08:01:00,44.8,44.1,29.87,NW,315,3.1,5.4,97,0.00,,,0.02,meteobridge,2013-04-11 12:01:00,
2013-04-11 08:06:00,44.8,44.1,29.86,SW,225,2.2,5.4,97,0.00,,,0.02,meteobridge,2013-04-11 12:06:00,
2013-04-11 08:11:00,45.0,44.2,29.86,West,270,2.2,2.2,97,0.00,,,0.02,meteobridge,2013-04-11 12:11:00,
2013-04-11 08:16:00,45.3,44.6,29.86,SW,225,2.2,4.5,97,0.00,,,0.02,meteobridge,2013-04-11 12:16:00,
2013-04-11 08:21:00,45.5,44.8,29.87,SW,225,3.8,3.8,97,0.00,,,0.02,meteobridge,2013-04-11 12:21:00,
2013-04-11 08:27:00,45.7,45.0,29.87,West,270,3.1,3.1,97,0.00,,,0.02,meteobridge,2013-04-11 12:27:00,
2013-04-11 08:32:00,45.5,44.8,29.87,SW,225,3.1,6.0,97,0.00,,,0.02,meteobridge,2013-04-11 12:32:00,
2013-04-11 08:37:00,45.5,44.8,29.87,South,180,3.8,3.8,97,0.00,,,0.02,meteobridge,2013-04-11 12:37:00,
2013-04-11 08:42:00,45.3,44.6,29.87,West,270,3.8,6.9,97,0.00,,,0.02,meteobridge,2013-04-11 12:42:00,
2013-04-11 08:47:00,45.3,44.6,29.87,West,270,4.5,4.5,97,0.00,,,0.02,meteobridge,2013-04-11 12:47:00,
2013-04-11 08:52:00,45.5,44.8,29.87,South,180,4.5,4.5,97,0.00,,,0.02,meteobridge,2013-04-11 12:52:00,
2013-04-11 08:57:00,45.5,44.8,29.87,West,270,4.5,4.5,97,0.00,,,0.02,meteobridge,2013-04-11 12:57:00,
2013-04-11 09:02:00,45.7,45.0,29.87,SW,225,1.6,3.1,97,0.00,,,0.02,meteobridge,2013-04-11 13:02:00,
2013-04-11 09:07:00,46.0,45.3,29.87,SW,225,3.8,3.8,97,0.00,,,0.02,meteobridge,2013-04-11 13:07:00,
2013-04-11 09:13:00,46.0,45.3,29.87,WNW,293,4.5,6.0,97,0.00,,,0.02,meteobridge,2013-04-11 13:13:00,
2013-04-11 09:18:00,45.9,45.1,29.87,SSW,203,5.4,5.4,97,0.00,,,0.02,meteobridge,2013-04-11 13:18:00,
2013-04-11 09:23:00,46.0,45.3,29.88,SW,225,6.9,6.9,97,0.00,,,0.02,meteobridge,2013-04-11 13:23:00,
2013-04-11 09:28:00,46.0,45.3,29.88,East,90,3.1,3.8,97,0.01,,,0.04,meteobridge,2013-04-11 13:28:00,
2013-04-11 09:33:00,46.2,45.5,29.88,SW,225,6.9,7.6,97,0.01,,,0.04,meteobridge,2013-04-11 13:33:00,
2013-04-11 09:38:00,46.0,45.3,29.89,West,270,3.8,4.5,97,0.01,,,0.04,meteobridge,2013-04-11 13:38:00,
2013-04-11 09:44:00,46.2,45.5,29.90,SW,225,3.8,4.5,97,0.01,,,0.04,meteobridge,2013-04-11 13:44:00,
2013-04-11 09:49:00,46.2,45.5,29.90,South,180,3.8,5.4,97,0.01,,,0.04,meteobridge,2013-04-11 13:49:00,
2013-04-11 09:54:00,46.0,45.3,29.90,SW,225,8.3,8.3,97,0.01,,,0.04,meteobridge,2013-04-11 13:54:00,
2013-04-11 09:59:00,45.7,45.0,29.91,West,270,4.5,5.4,97,0.01,,,0.04,meteobridge,2013-04-11 13:59:00,
2013-04-11 10:04:00,45.7,45.0,29.91,SW,225,6.0,6.9,97,0.01,,,0.04,meteobridge,2013-04-11 14:04:00,
2013-04-11 10:09:00,45.9,45.1,29.91,South,180,6.0,8.3,97,0.01,,,0.04,meteobridge,2013-04-11 14:09:00,
2013-04-11 10:15:00,45.7,45.0,29.92,WNW,293,4.5,4.5,97,0.01,,,0.04,meteobridge,2013-04-11 14:15:00,
2013-04-11 10:20:00,45.7,45.0,29.92,West,270,6.0,6.0,97,0.01,,,0.04,meteobridge,2013-04-11 14:20:00,
2013-04-11 10:25:00,45.7,45.0,29.91,SW,225,6.0,6.9,97,0.01,,,0.04,meteobridge,2013-04-11 14:25:00,
2013-04-11 10:30:00,45.3,44.6,29.91,SW,225,3.1,4.5,97,0.00,,,0.04,meteobridge,2013-04-11 14:30:00,
2013-04-11 10:35:00,45.3,44.6,29.91,West,270,2.2,4.5,97,0.00,,,0.04,meteobridge,2013-04-11 14:35:00,
2013-04-11 10:40:00,45.7,45.0,29.92,South,180,5.4,6.0,97,0.00,,,0.04,meteobridge,2013-04-11 14:40:00,
2013-04-11 10:46:00,45.7,45.0,29.91,North,0,4.5,6.9,97,0.00,,,0.04,meteobridge,2013-04-11 14:46:00,
2013-04-11 10:51:00,46.2,45.5,29.91,West,270,5.4,5.4,97,0.00,,,0.04,meteobridge,2013-04-11 14:51:00,
2013-04-11 10:56:00,46.6,45.1,29.92,West,270,7.6,7.6,95,0.00,,,0.04,meteobridge,2013-04-11 14:56:00,
2013-04-11 11:01:00,47.7,46.0,29.93,SW,225,6.0,6.0,94,0.00,,,0.04,meteobridge,2013-04-11 15:01:00,
2013-04-11 11:06:00,48.0,45.1,29.93,NW,315,5.4,6.0,90,0.00,,,0.04,meteobridge,2013-04-11 15:06:00,
2013-04-11 11:11:00,48.2,44.2,29.93,SW,225,3.8,4.5,86,0.00,,,0.04,meteobridge,2013-04-11 15:11:00,
2013-04-11 11:16:00,48.7,44.4,29.93,West,270,4.5,5.4,85,0.00,,,0.04,meteobridge,2013-04-11 15:16:00,
2013-04-11 11:21:00,49.3,44.4,29.92,NW,315,6.0,6.0,83,0.00,,,0.04,meteobridge,2013-04-11 15:21:00,
2013-04-11 11:27:00,49.6,43.7,29.92,SW,225,4.5,4.5,80,0.00,,,0.04,meteobridge,2013-04-11 15:27:00,
2013-04-11 11:32:00,50.5,43.3,29.92,SSW,203,7.6,7.6,76,0.00,,,0.04,meteobridge,2013-04-11 15:32:00,
2013-04-11 11:37:00,50.4,42.8,29.93,SW,225,3.8,4.5,75,0.00,,,0.04,meteobridge,2013-04-11 15:37:00,
2013-04-11 11:42:00,50.5,42.6,29.93,West,270,3.8,4.5,74,0.00,,,0.04,meteobridge,2013-04-11 15:42:00,
2013-04-11 11:47:00,50.2,42.3,29.93,WSW,248,6.9,6.9,74,0.00,,,0.04,meteobridge,2013-04-11 15:47:00,
2013-04-11 11:52:00,49.5,41.9,29.94,SW,225,6.0,6.0,75,0.00,,,0.04,meteobridge,2013-04-11 15:52:00,
2013-04-11 11:58:00,48.7,41.5,29.95,NW,315,2.2,7.6,76,0.00,,,0.04,meteobridge,2013-04-11 15:58:00,
2013-04-11 12:03:00,48.2,41.0,29.95,SW,225,5.4,5.4,76,0.00,,,0.04,meteobridge,2013-04-11 16:03:00,
2013-04-11 12:08:00,48.0,40.8,29.95,South,180,3.1,6.9,76,0.00,,,0.04,meteobridge,2013-04-11 16:08:00,
2013-04-11 12:13:00,48.7,41.2,29.94,WNW,293,4.5,8.3,75,0.00,,,0.04,meteobridge,2013-04-11 16:13:00,
2013-04-11 12:18:00,48.7,40.8,29.95,West,270,3.1,3.8,74,0.00,,,0.04,meteobridge,2013-04-11 16:18:00,
2013-04-11 12:23:00,48.7,40.8,29.95,SW,225,4.5,6.9,74,0.00,,,0.04,meteobridge,2013-04-11 16:23:00,
2013-04-11 12:29:00,48.7,40.1,29.95,West,270,4.5,6.9,72,0.00,,,0.04,meteobridge,2013-04-11 16:29:00,
2013-04-11 12:34:00,48.7,40.1,29.95,SW,225,5.4,5.4,72,0.00,,,0.04,meteobridge,2013-04-11 16:34:00,
2013-04-11 12:39:00,48.7,40.1,29.96,WSW,248,4.5,4.5,72,0.00,,,0.04,meteobridge,2013-04-11 16:39:00,
2013-04-11 12:44:00,48.9,40.6,29.96,NW,315,2.2,3.1,73,0.00,,,0.04,meteobridge,2013-04-11 16:44:00,
2013-04-11 12:49:00,50.4,41.7,29.95,NW,315,4.5,4.5,72,0.00,,,0.04,meteobridge,2013-04-11 16:49:00,
2013-04-11 12:54:00,51.4,41.2,29.95,West,270,5.4,5.4,68,0.00,,,0.04,meteobridge,2013-04-11 16:54:00,
2013-04-11 13:00:00,51.6,41.0,29.95,NW,315,6.0,6.0,67,0.00,,,0.04,meteobridge,2013-04-11 17:00:00,
2013-04-11 13:05:00,51.8,40.1,29.96,West,270,7.6,7.6,64,0.00,,,0.04,meteobridge,2013-04-11 17:05:00,
2013-04-11 13:10:00,52.3,40.5,29.95,WNW,293,5.4,7.6,64,0.00,,,0.04,meteobridge,2013-04-11 17:10:00,
2013-04-11 13:15:00,53.1,41.2,29.95,West,270,6.0,6.0,64,0.00,,,0.04,meteobridge,2013-04-11 17:15:00,
2013-04-11 13:20:00,53.8,41.5,29.95,West,270,5.4,5.4,63,0.00,,,0.04,meteobridge,2013-04-11 17:20:00,
2013-04-11 13:25:00,53.1,40.5,29.95,East,90,3.8,8.3,62,0.00,,,0.04,meteobridge,2013-04-11 17:25:00,
2013-04-11 13:31:00,53.1,40.5,29.95,South,180,2.2,4.5,62,0.00,,,0.04,meteobridge,2013-04-11 17:31:00,
2013-04-11 13:36:00,54.1,41.0,29.95,SW,225,3.8,6.0,61,0.00,,,0.04,meteobridge,2013-04-11 17:36:00,
2013-04-11 13:41:00,54.5,39.2,29.96,SW,225,6.0,6.0,56,0.00,,,0.04,meteobridge,2013-04-11 17:41:00,
2013-04-11 13:46:00,53.8,38.5,29.96,South,180,7.6,7.6,56,0.00,,,0.04,meteobridge,2013-04-11 17:46:00,
2013-04-11 13:51:00,54.7,39.4,29.96,West,270,6.0,8.3,56,0.00,,,0.04,meteobridge,2013-04-11 17:51:00,
2013-04-11 13:56:00,54.3,38.5,29.96,West,270,7.6,7.6,55,0.00,,,0.04,meteobridge,2013-04-11 17:56:00,
2013-04-11 14:01:00,53.1,38.3,29.96,West,270,4.5,5.4,57,0.00,,,0.04,meteobridge,2013-04-11 18:01:00,
2013-04-11 14:07:00,52.3,39.4,29.96,West,270,6.0,6.0,61,0.00,,,0.04,meteobridge,2013-04-11 18:07:00,
2013-04-11 14:12:00,52.5,39.9,29.96,SW,225,4.5,4.5,62,0.00,,,0.04,meteobridge,2013-04-11 18:12:00,
2013-04-11 14:17:00,54.1,40.6,29.97,NW,315,3.1,4.5,60,0.00,,,0.04,meteobridge,2013-04-11 18:17:00,
2013-04-11 14:22:00,55.2,40.3,29.97,South,180,4.5,6.0,57,0.00,,,0.04,meteobridge,2013-04-11 18:22:00,
2013-04-11 14:27:00,54.7,39.4,29.97,ENE,68,3.8,4.5,56,0.00,,,0.04,meteobridge,2013-04-11 18:27:00,
2013-04-11 14:32:00,55.6,40.6,29.97,SW,225,3.8,5.4,57,0.00,,,0.04,meteobridge,2013-04-11 18:32:00,
2013-04-11 14:37:00,55.9,39.9,29.97,West,270,6.0,6.9,55,0.00,,,0.04,meteobridge,2013-04-11 18:37:00,
2013-04-11 14:43:00,55.2,39.4,29.97,NW,315,3.1,6.0,55,0.00,,,0.04,meteobridge,2013-04-11 18:43:00,
2013-04-11 14:48:00,54.9,39.9,29.96,West,270,3.8,7.6,57,0.00,,,0.04,meteobridge,2013-04-11 18:48:00,
2013-04-11 14:53:00,55.6,40.6,29.96,West,270,4.5,6.9,57,0.00,,,0.04,meteobridge,2013-04-11 18:53:00,
2013-04-11 14:58:00,55.4,39.9,29.96,NW,315,5.4,5.4,56,0.00,,,0.04,meteobridge,2013-04-11 18:58:00,
2013-04-11 15:03:00,55.0,40.1,29.97,NW,315,3.8,7.6,57,0.00,,,0.04,meteobridge,2013-04-11 19:03:00,
2013-04-11 15:08:00,54.9,39.4,29.97,NNW,338,4.5,9.8,56,0.00,,,0.04,meteobridge,2013-04-11 19:08:00,
2013-04-11 15:14:00,54.7,40.3,29.96,North,0,2.2,6.0,58,0.00,,,0.04,meteobridge,2013-04-11 19:14:00,
2013-04-11 15:19:00,54.7,39.7,29.97,South,180,4.5,4.5,57,0.00,,,0.04,meteobridge,2013-04-11 19:19:00,
2013-04-11 15:24:00,54.3,39.9,29.96,West,270,2.2,5.4,58,0.00,,,0.04,meteobridge,2013-04-11 19:24:00,
2013-04-11 15:29:00,54.3,39.4,29.96,West,270,4.5,4.5,57,0.00,,,0.04,meteobridge,2013-04-11 19:29:00,
2013-04-11 15:34:00,54.0,39.6,29.96,South,180,3.8,5.4,58,0.00,,,0.04,meteobridge,2013-04-11 19:34:00,
2013-04-11 15:39:00,54.0,39.6,29.97,SW,225,5.4,5.4,58,0.00,,,0.04,meteobridge,2013-04-11 19:39:00,
2013-04-11 15:45:00,53.2,39.2,29.97,NW,315,4.5,5.4,59,0.00,,,0.04,meteobridge,2013-04-11 19:45:00,
2013-04-11 15:50:00,52.5,38.7,29.97,NW,315,5.4,5.4,59,0.00,,,0.04,meteobridge,2013-04-11 19:50:00,
2013-04-11 15:55:00,53.1,39.2,29.97,SW,225,5.4,5.4,59,0.00,,,0.04,meteobridge,2013-04-11 19:55:00,
2013-04-11 16:00:00,52.2,38.7,29.97,North,0,3.8,5.4,60,0.00,,,0.04,meteobridge,2013-04-11 20:00:00,
2013-04-11 16:05:00,52.3,39.7,29.97,NW,315,3.8,5.4,62,0.00,,,0.04,meteobridge,2013-04-11 20:05:00,
2013-04-11 16:10:00,52.2,39.2,29.97,SW,225,4.5,4.5,61,0.00,,,0.04,meteobridge,2013-04-11 20:10:00,
2013-04-11 16:16:00,51.6,39.4,29.97,SW,225,3.8,5.4,63,0.00,,,0.04,meteobridge,2013-04-11 20:16:00,
2013-04-11 16:21:00,51.4,39.7,29.97,SW,225,2.2,3.8,64,0.00,,,0.04,meteobridge,2013-04-11 20:21:00,
2013-04-11 16:26:00,50.9,39.2,29.97,NW,315,4.5,6.0,64,0.00,,,0.04,meteobridge,2013-04-11 20:26:00,
2013-04-11 16:31:00,50.0,38.3,29.97,SW,225,3.8,4.5,64,0.00,,,0.04,meteobridge,2013-04-11 20:31:00,
2013-04-11 16:36:00,50.4,38.7,29.97,SW,225,3.8,3.8,64,0.00,,,0.04,meteobridge,2013-04-11 20:36:00,
2013-04-11 16:41:00,50.2,38.5,29.97,North,0,5.4,5.4,64,0.00,,,0.04,meteobridge,2013-04-11 20:41:00,
2013-04-11 16:47:00,50.2,38.5,29.96,NW,315,6.0,6.0,64,0.00,,,0.04,meteobridge,2013-04-11 20:47:00,
2013-04-11 16:52:00,49.5,37.8,29.97,West,270,3.8,4.5,64,0.00,,,0.04,meteobridge,2013-04-11 20:52:00,
2013-04-11 16:57:00,48.6,37.4,29.97,SW,225,3.8,3.8,65,0.00,,,0.04,meteobridge,2013-04-11 20:57:00,
2013-04-11 17:02:00,48.6,37.4,29.98,West,270,3.8,3.8,65,0.00,,,0.04,meteobridge,2013-04-11 21:02:00,
2013-04-11 17:07:00,48.7,37.6,29.98,SW,225,3.8,5.4,65,0.00,,,0.04,meteobridge,2013-04-11 21:07:00,
2013-04-11 17:12:00,48.4,37.2,29.98,NW,315,4.5,4.5,65,0.00,,,0.04,meteobridge,2013-04-11 21:12:00,
2013-04-11 17:17:00,49.1,37.4,29.99,NW,315,3.8,3.8,64,0.00,,,0.04,meteobridge,2013-04-11 21:17:00,
2013-04-11 17:22:00,49.3,37.6,29.99,West,270,3.1,3.1,64,0.00,,,0.04,meteobridge,2013-04-11 21:22:00,
2013-04-11 17:28:00,47.8,36.3,29.99,West,270,3.1,4.5,64,0.00,,,0.04,meteobridge,2013-04-11 21:28:00,
2013-04-11 17:33:00,46.8,35.6,29.99,NW,315,3.8,3.8,65,0.00,,,0.04,meteobridge,2013-04-11 21:33:00,
2013-04-11 17:38:00,46.2,35.1,29.99,NNW,338,2.2,3.1,65,0.00,,,0.04,meteobridge,2013-04-11 21:38:00,
2013-04-11 17:43:00,46.2,35.4,29.99,West,270,2.2,3.1,66,0.00,,,0.04,meteobridge,2013-04-11 21:43:00,
2013-04-11 17:48:00,46.0,35.2,30.00,NW,315,1.6,3.8,66,0.00,,,0.04,meteobridge,2013-04-11 21:48:00,
2013-04-11 17:53:00,45.7,35.4,30.00,NW,315,3.1,3.1,67,0.00,,,0.04,meteobridge,2013-04-11 21:53:00,
2013-04-11 17:58:00,45.3,35.1,30.00,SW,225,2.2,2.2,67,0.00,,,0.04,meteobridge,2013-04-11 21:58:00,
2013-04-11 18:03:00,45.0,35.1,30.00,NNE,23,2.2,2.2,68,0.00,,,0.04,meteobridge,2013-04-11 22:03:00,
2013-04-11 18:09:00,44.8,34.9,30.00,SW,225,2.2,2.2,68,0.00,,,0.04,meteobridge,2013-04-11 22:09:00,
2013-04-11 18:14:00,44.6,35.1,30.00,NW,315,3.1,3.1,69,0.00,,,0.04,meteobridge,2013-04-11 22:14:00,
2013-04-11 18:19:00,44.6,34.7,30.00,NW,315,2.2,2.2,68,0.00,,,0.04,meteobridge,2013-04-11 22:19:00,
2013-04-11 18:24:00,44.4,36.0,30.00,NW,315,2.2,3.1,72,0.00,,,0.04,meteobridge,2013-04-11 22:24:00,
2013-04-11 18:29:00,44.6,35.8,30.01,NE,45,2.2,3.1,71,0.00,,,0.04,meteobridge,2013-04-11 22:29:00,
2013-04-11 18:34:00,44.2,36.1,30.01,NW,315,3.1,3.1,73,0.00,,,0.04,meteobridge,2013-04-11 22:34:00,
2013-04-11 18:40:00,44.1,36.0,30.02,NW,315,1.6,3.1,73,0.00,,,0.04,meteobridge,2013-04-11 22:40:00,
2013-04-11 18:45:00,44.1,36.3,30.03,NW,315,3.1,3.1,74,0.00,,,0.04,meteobridge,2013-04-11 22:45:00,
2013-04-11 18:50:00,43.9,36.1,30.02,NW,315,2.2,3.8,74,0.00,,,0.04,meteobridge,2013-04-11 22:50:00,
2013-04-11 18:55:00,43.9,35.8,30.03,West,270,1.6,2.2,73,0.00,,,0.04,meteobridge,2013-04-11 22:55:00,
2013-04-11 19:00:00,43.7,36.0,30.03,NW,315,1.6,2.2,74,0.00,,,0.04,meteobridge,2013-04-11 23:00:00,
2013-04-11 19:05:00,43.7,36.0,30.03,West,270,1.6,1.6,74,0.00,,,0.04,meteobridge,2013-04-11 23:05:00,
2013-04-11 19:11:00,43.7,36.0,30.02,NE,45,1.6,1.6,74,0.00,,,0.04,meteobridge,2013-04-11 23:11:00,
2013-04-11 19:16:00,43.7,36.0,30.03,NE,45,2.2,2.2,74,0.00,,,0.04,meteobridge,2013-04-11 23:16:00,
2013-04-11 19:21:00,43.5,36.1,30.02,WNW,293,1.6,2.2,75,0.00,,,0.04,meteobridge,2013-04-11 23:21:00,
2013-04-11 19:26:00,43.5,36.1,30.02,West,270,0.7,1.6,75,0.00,,,0.04,meteobridge,2013-04-11 23:26:00,
2013-04-11 19:31:00,43.5,36.1,30.03,NW,315,1.6,1.6,75,0.00,,,0.04,meteobridge,2013-04-11 23:31:00,
2013-04-11 19:36:00,43.3,36.0,30.03,NW,315,2.2,2.2,75,0.00,,,0.04,meteobridge,2013-04-11 23:36:00,
2013-04-11 19:42:00,43.3,36.3,30.03,West,270,0.7,4.5,76,0.00,,,0.04,meteobridge,2013-04-11 23:42:00,
2013-04-11 19:47:00,43.3,36.3,30.03,SW,225,2.2,2.2,76,0.00,,,0.04,meteobridge,2013-04-11 23:47:00,
2013-04-11 19:52:00,43.3,36.3,30.03,West,270,1.6,1.6,76,0.00,,,0.04,meteobridge,2013-04-11 23:52:00,
2013-04-11 19:57:00,43.3,36.3,30.03,South,180,1.6,2.2,76,0.00,,,0.04,meteobridge,2013-04-11 23:57:00,
2013-04-11 20:02:00,43.3,36.3,30.04,West,270,2.2,3.1,76,0.00,,,0.04,meteobridge,2013-04-12 00:02:00,
2013-04-11 20:07:00,43.3,36.3,30.03,NW,315,2.2,2.2,76,0.00,,,0.04,meteobridge,2013-04-12 00:07:00,
2013-04-11 20:13:00,43.3,36.3,30.03,NW,315,2.2,3.8,76,0.00,,,0.04,meteobridge,2013-04-12 00:13:00,
2013-04-11 20:18:00,43.3,36.3,30.03,SW,225,1.6,1.6,76,0.00,,,0.04,meteobridge,2013-04-12 00:18:00,
2013-04-11 20:23:00,43.3,36.3,30.04,West,270,2.2,2.2,76,0.00,,,0.04,meteobridge,2013-04-12 00:23:00,
2013-04-11 20:28:00,43.3,36.3,30.03,West,270,2.2,2.2,76,0.00,,,0.04,meteobridge,2013-04-12 00:28:00,
2013-04-11 20:33:00,43.3,36.3,30.04,NW,315,1.6,2.2,76,0.00,,,0.04,meteobridge,2013-04-12 00:33:00,
2013-04-11 20:38:00,43.3,36.3,30.04,NW,315,1.6,2.2,76,0.00,,,0.04,meteobridge,2013-04-12 00:38:00,
2013-04-11 20:44:00,43.5,36.5,30.05,North,0,1.6,1.6,76,0.00,,,0.04,meteobridge,2013-04-12 00:44:00,
2013-04-11 20:49:00,43.5,36.5,30.04,West,270,1.6,1.6,76,0.00,,,0.04,meteobridge,2013-04-12 00:49:00,
2013-04-11 20:54:00,43.5,36.5,30.05,NW,315,1.6,2.2,76,0.00,,,0.04,meteobridge,2013-04-12 00:54:00,
2013-04-11 20:59:00,43.5,36.5,30.04,NW,315,3.1,3.1,76,0.00,,,0.04,meteobridge,2013-04-12 00:59:00,
2013-04-11 21:04:00,43.5,36.5,30.05,North,0,1.6,2.2,76,0.00,,,0.04,meteobridge,2013-04-12 01:04:00,
2013-04-11 21:09:00,43.5,36.5,30.05,NW,315,2.2,2.2,76,0.00,,,0.04,meteobridge,2013-04-12 01:09:00,
2013-04-11 21:15:00,43.5,36.5,30.05,NW,315,1.6,1.6,76,0.00,,,0.04,meteobridge,2013-04-12 01:15:00,
2013-04-11 21:20:00,43.5,36.9,30.05,NW,315,1.6,2.2,77,0.00,,,0.04,meteobridge,2013-04-12 01:20:00,
2013-04-11 21:25:00,43.5,36.9,30.06,WNW,293,0.7,2.2,77,0.00,,,0.04,meteobridge,2013-04-12 01:25:00,
2013-04-11 21:30:00,43.5,36.5,30.06,WNW,293,1.6,3.1,76,0.00,,,0.04,meteobridge,2013-04-12 01:30:00,
2013-04-11 21:35:00,43.5,36.5,30.06,West,270,2.2,2.2,76,0.00,,,0.04,meteobridge,2013-04-12 01:35:00,
2013-04-11 21:40:00,43.5,36.5,30.07,NW,315,2.2,2.2,76,0.00,,,0.04,meteobridge,2013-04-12 01:40:00,
2013-04-11 21:45:00,43.5,36.5,30.07,NW,315,2.2,3.8,76,0.00,,,0.04,meteobridge,2013-04-12 01:45:00,
2013-04-11 21:51:00,43.5,36.5,30.07,North,0,1.6,2.2,76,0.00,,,0.04,meteobridge,2013-04-12 01:51:00,
2013-04-11 21:56:00,43.5,36.1,30.07,NW,315,1.6,1.6,75,0.00,,,0.04,meteobridge,2013-04-12 01:56:00,
2013-04-11 22:01:00,43.5,36.5,30.07,North,0,1.6,1.6,76,0.00,,,0.04,meteobridge,2013-04-12 02:01:00,
2013-04-11 22:06:00,43.5,36.5,30.07,NE,45,2.2,2.2,76,0.00,,,0.04,meteobridge,2013-04-12 02:06:00,
2013-04-11 22:11:00,43.5,36.5,30.07,North,0,2.2,2.2,76,0.00,,,0.04,meteobridge,2013-04-12 02:11:00,
2013-04-11 22:16:00,43.5,36.5,30.07,NE,45,1.6,1.6,76,0.00,,,0.04,meteobridge,2013-04-12 02:16:00,
2013-04-11 22:21:00,43.5,36.5,30.08,East,90,1.6,1.6,76,0.00,,,0.04,meteobridge,2013-04-12 02:21:00,
2013-04-11 22:26:00,43.5,36.5,30.08,North,0,0.7,0.7,76,0.00,,,0.04,meteobridge,2013-04-12 02:26:00,
2013-04-11 22:31:00,43.5,36.5,30.09,North,0,0.7,1.6,76,0.00,,,0.04,meteobridge,2013-04-12 02:31:00,
2013-04-11 22:36:00,43.5,36.5,30.08,NW,315,1.6,2.2,76,0.00,,,0.04,meteobridge,2013-04-12 02:36:00,
2013-04-11 22:41:00,43.5,36.5,30.08,West,270,0.7,1.6,76,0.00,,,0.04,meteobridge,2013-04-12 02:41:00,
2013-04-11 22:47:00,43.5,36.5,30.09,SE,135,1.6,1.6,76,0.00,,,0.04,meteobridge,2013-04-12 02:47:00,
2013-04-11 22:52:00,43.5,36.5,30.08,NW,315,1.6,1.6,76,0.00,,,0.04,meteobridge,2013-04-12 02:52:00,
2013-04-11 22:57:00,43.7,36.7,30.08,NW,315,0.7,3.1,76,0.00,,,0.04,meteobridge,2013-04-12 02:57:00,
2013-04-11 23:02:00,43.7,36.7,30.08,NW,315,0.7,1.6,76,0.00,,,0.04,meteobridge,2013-04-12 03:02:00,
2013-04-11 23:07:00,43.7,36.7,30.09,SW,225,0.7,0.7,76,0.00,,,0.04,meteobridge,2013-04-12 03:07:00,
2013-04-11 23:12:00,43.7,36.7,30.09,West,270,0.7,1.6,76,0.00,,,0.04,meteobridge,2013-04-12 03:12:00,
2013-04-11 23:17:00,43.5,36.5,30.09,West,270,1.6,2.2,76,0.00,,,0.04,meteobridge,2013-04-12 03:17:00,
2013-04-11 23:22:00,43.5,36.5,30.08,North,0,3.1,3.1,76,0.00,,,0.04,meteobridge,2013-04-12 03:22:00,
2013-04-11 23:28:00,43.5,36.5,30.09,West,270,1.6,1.6,76,0.00,,,0.04,meteobridge,2013-04-12 03:28:00,
2013-04-11 23:33:00,43.5,36.5,30.09,North,0,1.6,1.6,76,0.00,,,0.04,meteobridge,2013-04-12 03:33:00,
2013-04-11 23:38:00,43.5,36.5,30.09,WSW,248,2.2,2.2,76,0.00,,,0.04,meteobridge,2013-04-12 03:38:00,
2013-04-11 23:43:00,43.5,36.5,30.09,NW,315,1.6,1.6,76,0.00,,,0.04,meteobridge,2013-04-12 03:43:00,
2013-04-11 23:48:00,43.5,36.5,30.10,SW,225,1.6,1.6,76,0.00,,,0.04,meteobridge,2013-04-12 03:48:00,
2013-04-11 23:53:00,43.5,36.5,30.09,North,0,1.6,1.6,76,0.00,,,0.04,meteobridge,2013-04-12 03:53:00,
2013-04-11 23:59:00,43.5,36.1,30.09,NW,315,0.7,1.6,75,0.00,,,0.04,meteobridge,2013-04-12 03:59:00,